This demonstration page uses our WeatherBlox Daily Observations layout. Learn more.

Left ArrowRight Arrow

39.92423, -83.80882

Hourly Observations for November 28, 2020

Temp ( °F °C ) Dew Point ( °F °C ) Humidity (%) Winds ( mph kmh ) Pressure ( in mb ) Visibility ( mi km ) Precip ( " mm )
12:54 am 00:54 Mostly Cloudy 37 3 37 3 100 100 W 6 9 30.12 1020 7 11 N/A
12:56 am 00:56 Mostly Cloudy 38 3.3 38 3.3 100 100 W 6 9 30.10 1019 7 11 N/A
1:18 am 01:18 Partly Cloudy 37 3 37 3 100 100 W 7 11 30.12 1020 8 13 N/A
1:26 am 01:26 Mostly Cloudy 37 3 37 3 100 100 W 7 11 30.13 1020 8 13 N/A
1:56 am 01:56 Mostly Cloudy 39 3.9 39 3.9 100 100 WNW 12 19 30.11 1020 8 13 N/A
2:56 am 02:56 Partly Cloudy 37 2.8 36 2.2 96 96 WNW 8 13 30.14 1021 9 14 N/A
3:56 am 03:56 Partly Cloudy 35 1.7 35 1.7 100 100 WNW 7 11 30.14 1021 7 11 N/A
4:56 am 04:56 Clear 33 0.6 33 0.6 100 100 WNW 6 9 30.16 1021 7 11 N/A
5:45 am 05:45 Partly Cloudy with Mist and Fog 34 1 34 1 100 100 NW 7 11 30.20 1023 5 8 N/A
5:47 am 05:47 Mostly Cloudy with Mist and Fog 34 1 34 1 100 100 NW 8 13 30.20 1023 6 10 N/A
5:56 am 05:56 Mostly Cloudy with Mist and Fog 34 1.1 34 1.1 100 100 NW 10 17 30.17 1022 5 8 N/A
6:13 am 06:13 Cloudy with Mist and Fog 34 1 34 1 100 100 NW 8 13 30.19 1022 4 6 N/A
6:47 am 06:47 Cloudy with Mist and Fog 34 1 34 1 100 100 WNW 7 11 30.20 1023 3 4 N/A
6:56 am 06:56 Cloudy with Mist and Fog 33 0.6 33 0.6 100 100 NW 6 9 30.18 1022 3 5 N/A
7:10 am 07:10 Cloudy with Mist and Fog 34 1 34 1 100 100 WNW 6 9 30.21 1023 3 4 N/A
7:39 am 07:39 Cloudy with Mist and Fog 34 1 34 1 100 100 WNW 8 13 30.23 1024 2 2 N/A
7:56 am 07:56 Cloudy with Mist and Fog 34 1.1 34 1.1 100 100 WNW 7 11 30.22 1023 2 3 N/A
8:12 am 08:12 Cloudy with Mist and Fog 34 1 34 1 100 100 WNW 8 13 30.24 1024 3 4 N/A
8:28 am 08:28 Cloudy with Mist and Fog 36 2 36 2 100 100 NNW 7 11 30.24 1024 3 5 N/A
8:38 am 08:38 Cloudy with Mist and Fog 36 2 36 2 100 100 NW 6 9 30.25 1024 4 6 N/A
8:56 am 08:56 Cloudy with Mist and Fog 36 2.2 35 1.7 97 97 NW 8 13 30.23 1024 5 8 N/A
9:56 am 09:56 Cloudy 38 3.3 36 2.2 93 93 W 6 9 30.24 1024 7 11 N/A
10:11 am 10:11 Partly Cloudy 37 3 34 1 87 87 N N/A 30.25 1024 7 11 N/A
10:35 am 10:35 Mostly Cloudy 39 4 36 2 87 87 N N/A 30.26 1025 8 13 N/A
10:56 am 10:56 Partly Cloudy 40 4.4 33 0.6 77 77 N N/A 30.25 1024 10 16 N/A
11:56 am 11:56 Sunny 42 5.6 33 0.6 71 71 WNW 6 9 30.24 1024 10 16 N/A
12:56 pm 12:56 Sunny 44 6.7 30 -1.1 58 58 NW 8 13 30.22 1023 10 16 N/A
1:56 pm 13:56 Sunny 45 7.2 29 -1.7 54 54 WNW 7 11 30.20 1023 10 16 N/A
2:56 pm 14:56 Sunny 46 7.8 30 -1.1 54 54 SW 7 11 30.18 1022 10 16 N/A
3:56 pm 15:56 Sunny 46 7.8 27 -2.8 47 47 SW 7 11 30.18 1022 10 16 N/A
4:56 pm 16:56 Sunny 43 6.1 28 -2.2 56 56 SSW 5 7 30.19 1022 10 16 N/A
5:56 pm 17:56 Clear 40 4.4 28 -2.2 63 63 SSW 3 6 30.20 1023 10 16 0.01 0.25
6:56 pm 18:56 Clear 38 3.3 30 -1.1 73 73 SSW 5 7 30.19 1022 10 16 N/A
7:56 pm 19:56 Clear 36 2.2 30 -1.1 79 79 SSW 3 6 30.19 1022 10 16 N/A
8:56 pm 20:56 Clear 36 2.2 30 -1.1 79 79 SSW 5 7 30.19 1022 10 16 N/A
9:56 pm 21:56 Clear 36 2.2 29 -1.7 76 76 SW 6 9 30.19 1023 10 16 N/A
10:56 pm 22:56 Clear 32 undefined 29 -1.7 88 88 SW 6 9 30.20 1023 10 16 N/A
11:56 pm 23:56 Clear 33 0.6 29 -1.7 85 85 SW 6 9 30.18 1022 10 16 N/A

Powered by AerisWeather